QPF
0.08 0.09 0.08 0.07 0.06 0.08 0.08 0.07 0.05 0.04 0.03 0.02 0.01 0.02 0.02 0.02 0.02 0.03 0.03 0.03 0.03 0.03 0.04 0.06 0.06 0.06 0.06 0.06 0.08 0.08 0.07 0.06 0.06 0.07 0.06 0.05 0.04 0.04 0.04 0.04 0.04 0.04 0.04
0.08 0.10 0.09 0.08 0.07 0.05 0.04 0.04 0.04 0.03 0.02 0.01 0.01 0.02 0.02 0.02 0.02 0.03 0.03 0.03 0.03 0.04 0.05 0.06 0.07 0.06 0.07 0.09 0.11 0.11 0.09 0.10 0.09 0.09 0.09 0.07 0.06 0.05 0.05 0.04 0.04 0.04 0.04
0.06 0.06 0.06 0.06 0.05 0.04 0.04 0.03 0.03 0.02 0.02 0.01 0.01 0.02 0.01 0.01 0.02 0.02 0.03 0.04 0.04 0.03 0.05 0.06 0.06 0.07 0.07 0.08 0.10 0.12 0.13 0.12 0.11 0.11 0.10 0.09 0.07 0.05 0.04 0.03 0.03 0.03 0.04
0.05 0.05 0.05 0.05 0.05 0.05 0.04 0.03 0.02 0.02 0.02 0.01 0.02 0.02 0.02 0.01 0.01 0.02 0.02 0.03 0.03 0.02 0.03 0.03 0.04 0.07 0.08 0.08 0.07 0.08 0.10 0.11 0.11 0.12 0.10 0.07 0.05 0.04 0.03 0.03 0.03 0.03 0.04
0.03 0.03 0.03 0.03 0.04 0.04 0.04 0.03 0.02 0.01 0.01 0.02 0.02 0.02 0.03 0.02 0.02 0.02 0.02 0.02 0.02 0.02 0.03 0.03 0.02 0.04 0.05 0.06 0.07 0.07 0.06 0.07 0.07 0.07 0.08 0.09 0.06 0.05 0.04 0.04 0.04 0.03 0.04
0.03 0.03 0.02 0.03 0.04 0.04 0.05 0.05 0.04 0.03 0.02 0.02 0.01 0.02 0.02 0.02 0.02 0.02 0.02 0.02 0.01 0.02 0.02 0.02 0.04 0.03 0.03 0.04 0.06 0.06 0.05 0.06 0.05 0.05 0.06 0.09 0.10 0.08 0.07 0.06 0.05 0.04 0.04
0.02 0.04 0.03 0.04 0.04 0.04 0.06 0.06 0.05 0.04 0.03 0.03 0.02 0.03 0.02 0.02 0.02 0.02 0.02 0.02 0.02 0.01 0.02 0.02 0.03 0.03 0.02 0.02 0.02 0.03 0.03 0.05 0.07 0.07 0.06 0.08 0.09 0.11 0.12 0.09 0.08 0.06 0.04
0.02 0.03 0.04 0.05 0.05 0.05 0.06 0.07 0.07 0.05 0.05 0.05 0.04 0.03 0.03 0.03 0.03 0.03 0.03 0.02 0.02 0.01 0.01 0.01 0.01 0.02 0.02 0.03 0.02 0.02 0.03 0.04 0.06 0.06 0.07 0.08 0.09 0.12 0.12 0.10 0.09 0.06 0.04
0.03 0.03 0.03 0.04 0.04 0.05 0.06 0.06 0.06 0.05 0.06 0.06 0.05 0.06 0.05 0.06 0.05 0.04 0.03 0.03 0.03 0.03 0.02 0.01 0.01 0.02 0.03 0.04 0.04 0.03 0.02 0.03 0.03 0.05 0.06 0.07 0.07 0.10 0.13 0.10 0.07 0.05 0.04
0.04 0.03 0.04 0.05 0.04 0.04 0.05 0.05 0.04 0.05 0.04 0.05 0.05 0.05 0.05 0.06 0.05 0.06 0.06 0.06 0.05 0.04 0.03 0.02 0.03 0.03 0.04 0.05 0.04 0.02 0.01 0.01 0.02 0.03 0.03 0.04 0.04 0.05 0.07 0.09 0.06 0.04 0.04
0.04 0.04 0.05 0.05 0.04 0.04 0.04 0.05 0.06 0.05 0.04 0.05 0.05 0.04 0.04 0.04 0.04 0.04 0.06 0.07 0.07 0.06 0.05 0.04 0.05 0.05 0.06 0.06 0.05 0.03 0.01 0.01 0.01 0.01 0.02 0.02 0.03 0.06 0.05 0.05 0.05 0.06 0.05
0.04 0.04 0.04 0.05 0.05 0.05 0.06 0.05 0.05 0.04 0.03 0.03 0.04 0.03 0.03 0.04 0.03 0.03 0.03 0.04 0.06 0.06 0.05 0.05 0.04 0.04 0.05 0.05 0.04 0.03 0.02 0.02 0.01 0.01 0.01 0.01 0.02 0.04 0.04 0.03 0.03 0.04 0.04
0.04 0.04 0.03 0.04 0.04 0.04 0.04 0.04 0.03 0.03 0.02 0.02 0.03 0.03 0.03 0.03 0.03 0.03 0.03 0.03 0.03 0.03 0.03 0.03 0.03 0.03 0.03 0.04 0.03 0.02 0.02 0.01 0.01 0.01 0.01 0.01 0.02 0.02 0.02 0.04 0.03 0.03 0.03
0.03 0.03 0.03 0.03 0.03 0.03 0.03 0.03 0.03 0.02 0.02 0.02 0.03 0.04 0.03 0.02 0.02 0.02 0.02 0.03 0.02 0.01 0.01 0.02 0.02 0.02 0.01 0.02 0.02 0.01 0.02 0.01 0.01 0.01 0.01 0.01 0.01 0.01 0.02 0.04 0.05 0.04 0.04
0.02 0.03 0.02 0.02 0.03 0.04 0.04 0.04 0.03 0.02 0.02 0.03 0.05 0.05 0.04 0.04 0.03 0.02 0.01 0.02 0.03 0.02 0.01 0.01 0.01 0.01 0.01 0.02 0.02 0.02 0.02 0.01 0.01 0.01 0.01 0.01 0.01 0.01 0.01 0.02 0.03 0.04 0.05
0.02 0.03 0.02 0.03 0.04 0.04 0.04 0.04 0.03 0.02 0.03 0.04 0.04 0.04 0.04 0.04 0.03 0.02 0.02 0.02 0.03 0.03 0.02 0.01 0.01 0.01 0.02 0.01 0.02 0.02 0.02 0.02 0.02 0.02 0.01 0.01 0.01 0.01 0.01 0.01 0.02 0.03 0.04
0.02 0.02 0.02 0.02 0.03 0.03 0.03 0.03 0.02 0.03 0.03 0.04 0.04 0.03 0.03 0.03 0.03 0.02 0.02 0.02 0.03 0.03 0.02 0.01 0.01 0.01 0.02 0.01 0.01 0.02 0.02 0.03 0.04 0.03 0.03 0.02 0.02 0.02 0.01 0.01 0.02 0.04 0.03
0.01 0.01 0.01 0.01 0.01 0.02 0.03 0.02 0.02 0.02 0.02 0.02 0.03 0.03 0.02 0.02 0.02 0.02 0.03 0.03 0.03 0.04 0.03 0.02 0.01 0.01 0.02 0.01 0.02 0.02 0.02 0.02 0.03 0.03 0.03 0.03 0.03 0.03 0.02 0.01 0.02 0.03 0.03
0.01 0.01 0.01 0.01 0.01 0.01 0.02 0.02 0.02 0.02 0.02 0.02 0.02 0.02 0.02 0.01 0.01 0.02 0.03 0.02 0.02 0.02 0.03 0.03 0.01 0.01 0.01 0.01 0.02 0.02 0.03 0.04 0.03 0.02 0.03 0.03 0.02 0.02 0.02 0.02 0.02 0.03 0.03
0.01 0.01 0.01 0.01 0.01 0.01 0.01 0.01 0.01 0.01 0.02 0.02 0.02 0.01 0.02 0.02 0.01 0.02 0.02 0.02 0.02 0.02 0.03 0.03 0.02 0.02 0.02 0.02 0.02 0.02 0.03 0.04 0.03 0.02 0.02 0.03 0.02 0.02 0.03 0.03 0.03 0.02 0.03
0.01 0.01 0.02 0.01 0.01 0.01 0.00 0.01 0.01 0.01 0.01 0.01 0.01 0.01 0.01 0.01 0.01 0.01 0.02 0.02 0.02 0.02 0.02 0.03 0.02 0.03 0.03 0.03 0.03 0.02 0.03 0.04 0.04 0.03 0.03 0.03 0.03 0.03 0.04 0.04 0.03 0.02 0.02
0.01 0.01 0.01 0.02 0.01 0.01 0.01 0.01 0.01 0.01 0.01 0.01 0.02 0.02 0.02 0.01 0.01 0.01 0.01 0.01 0.02 0.02 0.03 0.03 0.03 0.03 0.03 0.03 0.03 0.03 0.03 0.04 0.04 0.04 0.03 0.02 0.03 0.05 0.07 0.06 0.04 0.02 0.02
0.01 0.02 0.02 0.02 0.01 0.02 0.01 0.01 0.01 0.01 0.01 0.01 0.02 0.02 0.02 0.02 0.02 0.01 0.01 0.01 0.01 0.02 0.02 0.02 0.02 0.02 0.02 0.03 0.03 0.03 0.04 0.04 0.05 0.04 0.04 0.03 0.02 0.04 0.07 0.09 0.06 0.03 0.03
0.01 0.01 0.01 0.02 0.01 0.01 0.01 0.01 0.01 0.01 0.01 0.01 0.01 0.01 0.01 0.02 0.03 0.02 0.01 0.01 0.01 0.02 0.03 0.02 0.01 0.02 0.02 0.03 0.03 0.03 0.03 0.04 0.05 0.06 0.04 0.04 0.03 0.03 0.04 0.08 0.11 0.06 0.04
0.01 0.01 0.01 0.01 0.01 0.01 0.01 0.02 0.02 0.01 0.01 0.01 0.01 0.01 0.01 0.01 0.02 0.02 0.01 0.01 0.01 0.02 0.02 0.02 0.01 0.01 0.01 0.02 0.02 0.03 0.03 0.04 0.06 0.08 0.06 0.04 0.04 0.04 0.03 0.06 0.13 0.14 0.09
0.01 0.01 0.01 0.01 0.02 0.02 0.02 0.02 0.02 0.01 0.01 0.01 0.02 0.01 0.01 0.01 0.02 0.01 0.00 0.00 0.01 0.01 0.01 0.01 0.02 0.02 0.02 0.02 0.03 0.03 0.03 0.04 0.05 0.07 0.06 0.05 0.04 0.04 0.04 0.05 0.10 0.15 0.14
MSLP
1011.13 1011.03 1010.91 1010.77 1010.66 1010.58 1010.54 1010.54 1010.56 1010.57 1010.55 1010.49 1010.40 1010.30 1010.22 1010.20 1010.27 1010.45 1010.73 1011.08 1011.48 1011.86 1012.20 1012.49 1012.70 1012.87 1013.01 1013.15 1013.31 1013.50 1013.71 1013.95 1014.18 1014.40 1014.59 1014.76 1014.91 1015.06 1015.21 1015.37 1015.56 1015.77 1015.99
1011.19 1011.05 1010.90 1010.74 1010.60 1010.49 1010.43 1010.42 1010.43 1010.44 1010.43 1010.38 1010.29 1010.19 1010.08 1010.02 1010.04 1010.14 1010.33 1010.61 1010.93 1011.27 1011.60 1011.90 1012.17 1012.40 1012.61 1012.81 1013.02 1013.24 1013.47 1013.69 1013.90 1014.10 1014.27 1014.43 1014.57 1014.72 1014.88 1015.06 1015.25 1015.46 1015.68
1011.17 1011.01 1010.84 1010.66 1010.51 1010.39 1010.32 1010.30 1010.31 1010.32 1010.30 1010.25 1010.15 1010.02 1009.88 1009.76 1009.69 1009.70 1009.80 1009.98 1010.22 1010.52 1010.84 1011.16 1011.47 1011.78 1012.06 1012.34 1012.61 1012.86 1013.11 1013.33 1013.54 1013.72 1013.89 1014.05 1014.21 1014.38 1014.56 1014.76 1014.97 1015.18 1015.39
1011.07 1010.90 1010.71 1010.53 1010.38 1010.26 1010.20 1010.18 1010.18 1010.18 1010.16 1010.09 1009.96 1009.79 1009.60 1009.41 1009.25 1009.16 1009.16 1009.24 1009.41 1009.65 1009.96 1010.29 1010.65 1011.01 1011.37 1011.71 1012.04 1012.33 1012.60 1012.84 1013.06 1013.25 1013.44 1013.62 1013.82 1014.02 1014.24 1014.46 1014.68 1014.90 1015.10
1010.93 1010.75 1010.56 1010.39 1010.24 1010.14 1010.08 1010.05 1010.05 1010.04 1009.99 1009.90 1009.74 1009.52 1009.27 1009.01 1008.77 1008.58 1008.48 1008.47 1008.56 1008.75 1009.02 1009.36 1009.74 1010.14 1010.55 1010.94 1011.31 1011.65 1011.95 1012.22 1012.46 1012.68 1012.91 1013.14 1013.38 1013.63 1013.89 1014.14 1014.38 1014.59 1014.77
1010.82 1010.63 1010.44 1010.28 1010.15 1010.06 1010.01 1009.98 1009.96 1009.93 1009.85 1009.72 1009.52 1009.26 1008.95 1008.62 1008.31 1008.04 1007.85 1007.76 1007.77 1007.90 1008.13 1008.44 1008.81 1009.23 1009.65 1010.08 1010.47 1010.84 1011.18 1011.48 1011.76 1012.04 1012.32 1012.61 1012.91 1013.22 1013.51 1013.79 1014.03 1014.23 1014.38
1010.82 1010.61 1010.43 1010.28 1010.17 1010.09 1010.03 1009.99 1009.95 1009.88 1009.77 1009.59 1009.35 1009.04 1008.69 1008.31 1007.94 1007.61 1007.34 1007.17 1007.11 1007.17 1007.33 1007.59 1007.93 1008.33 1008.74 1009.17 1009.58 1009.97 1010.34 1010.68 1011.02 1011.36 1011.70 1012.06 1012.42 1012.77 1013.10 1013.39 1013.62 1013.79 1013.90
1010.97 1010.75 1010.57 1010.43 1010.32 1010.24 1010.18 1010.12 1010.05 1009.93 1009.77 1009.55 1009.26 1008.91 1008.52 1008.11 1007.70 1007.32 1007.00 1006.76 1006.63 1006.61 1006.69 1006.88 1007.15 1007.49 1007.87 1008.28 1008.68 1009.09 1009.48 1009.88 1010.27 1010.67 1011.09 1011.51 1011.92 1012.31 1012.66 1012.93 1013.14 1013.26 1013.31
1011.28 1011.05 1010.87 1010.72 1010.61 1010.52 1010.44 1010.35 1010.23 1010.07 1009.85 1009.58 1009.25 1008.88 1008.46 1008.03 1007.59 1007.18 1006.82 1006.53 1006.33 1006.22 1006.22 1006.31 1006.50 1006.76 1007.08 1007.44 1007.83 1008.24 1008.66 1009.09 1009.54 1010.01 1010.49 1010.96 1011.41 1011.82 1012.16 1012.42 1012.58 1012.64 1012.63
1011.69 1011.45 1011.26 1011.11 1010.98 1010.88 1010.76 1010.63 1010.46 1010.24 1009.97 1009.66 1009.30 1008.90 1008.47 1008.03 1007.59 1007.16 1006.77 1006.44 1006.17 1005.98 1005.88 1005.87 1005.95 1006.12 1006.37 1006.67 1007.03 1007.43 1007.87 1008.35 1008.85 1009.37 1009.90 1010.42 1010.90 1011.31 1011.64 1011.86 1011.96 1011.97 1011.89
1012.13 1011.88 1011.67 1011.50 1011.36 1011.22 1011.07 1010.89 1010.67 1010.40 1010.09 1009.73 1009.35 1008.94 1008.51 1008.07 1007.64 1007.21 1006.80 1006.42 1006.09 1005.82 1005.62 1005.51 1005.49 1005.56 1005.72 1005.96 1006.29 1006.68 1007.13 1007.64 1008.18 1008.75 1009.33 1009.87 1010.37 1010.78 1011.08 1011.26 1011.31 1011.26 1011.14
1012.51 1012.24 1012.02 1011.84 1011.67 1011.50 1011.31 1011.09 1010.82 1010.50 1010.15 1009.77 1009.37 1008.96 1008.54 1008.11 1007.69 1007.26 1006.84 1006.43 1006.04 1005.70 1005.41 1005.20 1005.07 1005.04 1005.12 1005.30 1005.59 1005.96 1006.42 1006.95 1007.53 1008.14 1008.75 1009.31 1009.82 1010.22 1010.51 1010.65 1010.67 1010.59 1010.44
1012.79 1012.51 1012.28 1012.08 1011.89 1011.69 1011.46 1011.19 1010.89 1010.54 1010.16 1009.76 1009.35 1008.95 1008.54 1008.14 1007.73 1007.31 1006.88 1006.44 1006.00 1005.59 1005.22 1004.91 1004.69 1004.57 1004.57 1004.69 1004.93 1005.29 1005.75 1006.29 1006.90 1007.53 1008.16 1008.75 1009.26 1009.67 1009.95 1010.08 1010.09 1010.00 1009.84
1012.97 1012.69 1012.44 1012.22 1012.01 1011.79 1011.53 1011.24 1010.90 1010.53 1010.13 1009.73 1009.32 1008.93 1008.54 1008.16 1007.76 1007.34 1006.90 1006.44 1005.96 1005.49 1005.05 1004.66 1004.35 1004.15 1004.08 1004.14 1004.34 1004.67 1005.12 1005.66 1006.28 1006.94 1007.59 1008.20 1008.72 1009.14 1009.43 1009.58 1009.61 1009.53 1009.40
1013.09 1012.81 1012.56 1012.33 1012.10 1011.86 1011.59 1011.27 1010.91 1010.53 1010.13 1009.72 1009.32 1008.94 1008.57 1008.19 1007.81 1007.39 1006.94 1006.46 1005.95 1005.42 1004.92 1004.46 1004.08 1003.81 1003.67 1003.68 1003.83 1004.13 1004.56 1005.10 1005.72 1006.39 1007.05 1007.68 1008.23 1008.68 1009.00 1009.18 1009.25 1009.22 1009.14
1013.21 1012.94 1012.69 1012.46 1012.23 1011.97 1011.68 1011.36 1010.99 1010.59 1010.19 1009.78 1009.39 1009.01 1008.64 1008.28 1007.89 1007.48 1007.02 1006.51 1005.97 1005.41 1004.85 1004.34 1003.90 1003.57 1003.38 1003.33 1003.44 1003.71 1004.11 1004.63 1005.24 1005.91 1006.58 1007.23 1007.81 1008.29 1008.66 1008.90 1009.04 1009.08 1009.07
1013.40 1013.14 1012.90 1012.67 1012.43 1012.17 1011.87 1011.54 1011.16 1010.76 1010.35 1009.94 1009.54 1009.16 1008.79 1008.42 1008.03 1007.60 1007.13 1006.60 1006.04 1005.45 1004.86 1004.31 1003.83 1003.45 1003.21 1003.12 1003.18 1003.41 1003.78 1004.27 1004.87 1005.52 1006.20 1006.86 1007.47 1008.00 1008.42 1008.74 1008.96 1009.09 1009.16
1013.66 1013.42 1013.19 1012.97 1012.73 1012.46 1012.16 1011.81 1011.43 1011.01 1010.58 1010.16 1009.75 1009.35 1008.97 1008.58 1008.18 1007.74 1007.25 1006.71 1006.13 1005.52 1004.91 1004.33 1003.82 1003.42 1003.14 1003.01 1003.04 1003.22 1003.55 1004.02 1004.58 1005.22 1005.89 1006.56 1007.20 1007.78 1008.27 1008.67 1008.97 1009.19 1009.36
1013.98 1013.76 1013.54 1013.33 1013.09 1012.82 1012.50 1012.14 1011.73 1011.30 1010.85 1010.40 1009.96 1009.54 1009.13 1008.72 1008.30 1007.84 1007.34 1006.78 1006.19 1005.57 1004.95 1004.36 1003.84 1003.42 1003.12 1002.96 1002.95 1003.10 1003.40 1003.83 1004.37 1004.98 1005.65 1006.33 1006.99 1007.61 1008.16 1008.64 1009.03 1009.35 1009.62
1014.31 1014.10 1013.89 1013.68 1013.44 1013.16 1012.82 1012.44 1012.01 1011.55 1011.07 1010.59 1010.12 1009.66 1009.22 1008.78 1008.33 1007.85 1007.33 1006.77 1006.17 1005.55 1004.93 1004.34 1003.82 1003.38 1003.07 1002.90 1002.88 1003.00 1003.27 1003.67 1004.18 1004.78 1005.43 1006.12 1006.80 1007.46 1008.07 1008.63 1009.11 1009.53 1009.89
1014.58 1014.38 1014.18 1013.97 1013.71 1013.42 1013.06 1012.65 1012.19 1011.69 1011.18 1010.66 1010.15 1009.66 1009.19 1008.72 1008.24 1007.73 1007.20 1006.63 1006.02 1005.41 1004.79 1004.21 1003.70 1003.27 1002.96 1002.79 1002.76 1002.87 1003.13 1003.50 1004.00 1004.58 1005.22 1005.91 1006.61 1007.31 1007.97 1008.60 1009.17 1009.69 1010.15
1014.76 1014.56 1014.36 1014.14 1013.87 1013.56 1013.18 1012.74 1012.25 1011.71 1011.16 1010.61 1010.06 1009.54 1009.03 1008.52 1008.02 1007.49 1006.94 1006.36 1005.75 1005.14 1004.53 1003.97 1003.46 1003.06 1002.77 1002.61 1002.58 1002.70 1002.95 1003.32 1003.80 1004.37 1005.02 1005.71 1006.42 1007.15 1007.87 1008.56 1009.21 1009.82 1010.39
1014.83 1014.64 1014.43 1014.20 1013.92 1013.58 1013.18 1012.71 1012.19 1011.63 1011.04 1010.46 1009.88 1009.32 1008.78 1008.25 1007.72 1007.17 1006.60 1006.01 1005.40 1004.78 1004.18 1003.63 1003.15 1002.77 1002.50 1002.36 1002.36 1002.50 1002.76 1003.14 1003.62 1004.19 1004.83 1005.53 1006.26 1007.02 1007.78 1008.53 1009.26 1009.96 1010.62
1014.84 1014.64 1014.43 1014.18 1013.89 1013.53 1013.11 1012.62 1012.08 1011.49 1010.88 1010.27 1009.68 1009.09 1008.53 1007.97 1007.41 1006.84 1006.25 1005.64 1005.02 1004.41 1003.82 1003.28 1002.82 1002.47 1002.23 1002.13 1002.17 1002.33 1002.62 1003.01 1003.51 1004.09 1004.73 1005.43 1006.18 1006.95 1007.74 1008.54 1009.33 1010.11 1010.86
1014.84 1014.64 1014.42 1014.17 1013.87 1013.50 1013.06 1012.56 1012.00 1011.40 1010.78 1010.15 1009.53 1008.93 1008.34 1007.76 1007.18 1006.59 1005.98 1005.35 1004.72 1004.10 1003.52 1003.00 1002.57 1002.25 1002.05 1002.00 1002.07 1002.28 1002.60 1003.02 1003.54 1004.12 1004.77 1005.47 1006.21 1006.99 1007.80 1008.63 1009.47 1010.30 1011.12
1014.88 1014.69 1014.48 1014.22 1013.92 1013.54 1013.10 1012.59 1012.02 1011.41 1010.78 1010.15 1009.52 1008.90 1008.29 1007.69 1007.08 1006.47 1005.84 1005.20 1004.56 1003.94 1003.37 1002.87 1002.47 1002.19 1002.04 1002.03 1002.15 1002.40 1002.76 1003.22 1003.75 1004.34 1004.99 1005.68 1006.41 1007.19 1007.99 1008.83 1009.68 1010.55 1011.40
Thickness
5769 5768 5766 5766 5767 5767 5766 5765 5765 5764 5763 5764 5764 5763 5763 5762 5761 5760 5757 5753 5750 5748 5746 5745 5744 5743 5742 5741 5739 5738 5737 5735 5734 5733 5732 5731 5730 5729 5728 5728 5728 5727 5727
5767 5766 5766 5765 5765 5765 5765 5764 5764 5763 5764 5763 5762 5762 5762 5762 5761 5759 5757 5754 5750 5748 5746 5745 5744 5743 5742 5740 5739 5738 5736 5735 5734 5733 5731 5730 5729 5729 5728 5728 5727 5727 5727
5765 5765 5765 5765 5764 5764 5763 5763 5763 5763 5763 5763 5762 5762 5761 5760 5760 5758 5757 5755 5753 5749 5747 5745 5744 5742 5741 5740 5739 5738 5737 5735 5734 5733 5732 5730 5729 5728 5727 5727 5727 5727 5726
5765 5764 5765 5764 5763 5763 5763 5763 5763 5762 5762 5761 5761 5761 5761 5760 5759 5757 5757 5755 5754 5753 5749 5746 5744 5742 5741 5740 5738 5737 5736 5735 5733 5732 5731 5730 5728 5727 5726 5726 5726 5725 5725
5765 5765 5764 5763 5763 5763 5763 5763 5763 5762 5760 5759 5760 5759 5760 5759 5758 5758 5756 5755 5753 5751 5750 5747 5745 5743 5741 5740 5738 5737 5735 5734 5733 5732 5730 5729 5727 5726 5725 5724 5724 5723 5723
5764 5764 5764 5762 5763 5762 5761 5760 5759 5759 5759 5759 5759 5758 5758 5758 5758 5757 5756 5756 5754 5752 5751 5749 5747 5745 5742 5740 5738 5736 5734 5733 5732 5731 5729 5727 5726 5725 5724 5723 5722 5722 5721
5765 5764 5764 5762 5762 5761 5759 5760 5759 5758 5757 5757 5756 5754 5756 5757 5756 5755 5755 5755 5754 5752 5750 5748 5747 5746 5744 5740 5737 5735 5733 5732 5731 5730 5729 5727 5725 5724 5723 5722 5721 5720 5719
5765 5765 5762 5763 5762 5760 5758 5758 5757 5756 5756 5756 5754 5751 5749 5750 5752 5755 5753 5752 5752 5751 5750 5748 5746 5743 5742 5741 5738 5734 5732 5731 5730 5728 5727 5726 5724 5723 5722 5721 5720 5719 5718
5764 5763 5762 5762 5761 5762 5760 5758 5757 5754 5753 5755 5754 5750 5746 5743 5746 5750 5750 5750 5748 5748 5748 5747 5745 5742 5739 5738 5736 5733 5730 5728 5727 5726 5725 5724 5723 5721 5720 5720 5719 5718 5717
5764 5764 5762 5761 5760 5761 5758 5759 5758 5756 5753 5752 5752 5751 5749 5747 5742 5741 5746 5748 5746 5744 5744 5744 5743 5740 5738 5735 5732 5730 5727 5725 5724 5723 5722 5721 5720 5719 5718 5717 5717 5716 5715
5764 5763 5762 5760 5759 5760 5758 5756 5755 5754 5754 5752 5751 5749 5747 5746 5745 5740 5737 5739 5742 5743 5742 5741 5739 5738 5735 5732 5730 5727 5724 5722 5721 5719 5718 5717 5716 5716 5715 5714 5714 5713 5712
5765 5763 5762 5760 5759 5759 5757 5755 5754 5753 5751 5749 5749 5749 5746 5744 5741 5740 5737 5736 5736 5738 5738 5737 5736 5735 5732 5730 5727 5723 5721 5719 5717 5715 5714 5713 5713 5712 5711 5710 5710 5710 5709
5765 5762 5762 5759 5758 5757 5756 5755 5752 5751 5749 5747 5745 5746 5745 5744 5742 5739 5736 5734 5732 5735 5734 5734 5733 5731 5729 5727 5724 5720 5717 5715 5714 5712 5710 5709 5709 5708 5707 5706 5706 5706 5705
5766 5763 5760 5758 5757 5755 5755 5752 5752 5749 5747 5745 5744 5741 5741 5741 5740 5738 5735 5731 5728 5730 5731 5729 5730 5728 5725 5722 5720 5716 5715 5712 5710 5708 5707 5706 5705 5703 5702 5702 5701 5700 5700
5765 5761 5759 5758 5756 5753 5752 5750 5748 5745 5744 5743 5742 5740 5738 5738 5737 5736 5734 5731 5725 5722 5724 5725 5725 5724 5721 5718 5715 5713 5712 5709 5707 5705 5704 5702 5701 5700 5699 5698 5697 5696 5695
5762 5759 5758 5756 5754 5751 5749 5747 5746 5743 5740 5739 5737 5734 5733 5735 5733 5732 5731 5730 5727 5723 5720 5722 5720 5720 5716 5715 5711 5709 5708 5705 5703 5702 5700 5699 5698 5696 5695 5693 5692 5691 5690
5760 5757 5756 5753 5751 5748 5746 5744 5743 5740 5737 5735 5734 5732 5729 5728 5728 5728 5728 5726 5724 5721 5716 5717 5718 5716 5711 5708 5707 5706 5704 5703 5702 5698 5696 5695 5693 5692 5690 5688 5687 5685 5685
5760 5757 5754 5751 5749 5746 5744 5741 5738 5737 5734 5732 5730 5728 5726 5726 5723 5723 5722 5720 5719 5716 5713 5709 5711 5710 5707 5705 5703 5701 5702 5701 5698 5695 5692 5690 5689 5687 5685 5684 5682 5680 5679
5758 5755 5753 5749 5747 5744 5741 5739 5735 5733 5731 5729 5727 5724 5723 5721 5718 5718 5716 5716 5715 5715 5711 5708 5707 5706 5705 5703 5699 5698 5698 5695 5695 5693 5689 5686 5684 5682 5680 5679 5677 5675 5674
5755 5753 5750 5747 5745 5742 5739 5736 5733 5730 5728 5726 5724 5721 5720 5717 5714 5713 5712 5710 5709 5707 5706 5705 5704 5702 5700 5699 5695 5694 5693 5691 5690 5690 5686 5683 5681 5678 5676 5674 5672 5670 5668
5753 5749 5747 5744 5742 5740 5737 5733 5730 5728 5725 5722 5720 5718 5716 5713 5710 5707 5708 5706 5704 5702 5702 5700 5698 5697 5695 5691 5690 5690 5687 5686 5685 5685 5683 5681 5679 5677 5674 5670 5667 5665 5662
5749 5746 5743 5740 5738 5737 5731 5726 5724 5724 5722 5719 5716 5714 5713 5710 5706 5702 5699 5697 5695 5695 5694 5692 5692 5689 5686 5686 5684 5683 5682 5681 5679 5680 5677 5676 5676 5673 5670 5667 5663 5659 5656
5744 5741 5739 5736 5734 5730 5725 5721 5718 5718 5718 5715 5712 5710 5710 5708 5703 5700 5697 5693 5691 5688 5685 5685 5685 5683 5681 5682 5678 5677 5674 5673 5671 5672 5670 5670 5670 5667 5665 5662 5657 5654 5651
5740 5737 5734 5732 5729 5726 5721 5717 5714 5714 5714 5711 5709 5706 5703 5701 5699 5695 5693 5692 5690 5687 5684 5681 5679 5678 5678 5675 5672 5670 5669 5667 5666 5666 5665 5663 5664 5662 5661 5656 5651 5648 5645
5735 5733 5731 5728 5725 5721 5716 5712 5708 5710 5709 5707 5705 5702 5698 5695 5690 5687 5687 5686 5684 5683 5680 5676 5673 5671 5669 5667 5665 5665 5664 5663 5662 5662 5660 5658 5658 5656 5654 5651 5647 5643 5640
5730 5728 5725 5723 5721 5717 5712 5708 5703 5707 5704 5703 5700 5698 5693 5689 5684 5681 5681 5680 5678 5677 5676 5673 5669 5666 5665 5662 5659 5658 5658 5657 5657 5655 5655 5651 5651 5649 5647 5646 5643 5639 5635